This demonstration page uses our WeatherBlox Daily Observations layout. Learn more.

Left ArrowRight Arrow

47.50024, -111.30081

Hourly Observations for April 30, 2018

Temp ( °F °C ) Dew Point ( °F °C ) Humidity (%) Winds ( mph kmh ) Pressure ( in mb ) Visibility ( mi km ) Precip ( " mm )
12:53 am 00:53 Cloudy 39 3.9 35 1.7 86 86 NNW 13 20 29.93 1014 10 16 0.01 0.25
1:53 am 01:53 Cloudy 39 3.9 34 1.1 82 82 NW 10 17 29.93 1014 10 16 0.00 0.00
2:53 am 02:53 Cloudy 38 3.3 34 1.1 86 86 NW 9 15 29.93 1014 10 16 0.00 0.00
3:53 am 03:53 Cloudy 38 3.3 33 0.6 83 83 NNW 13 20 29.94 1014 10 16 0.00 0.00
4:29 am 04:29 Cloudy 38 3.3 33 0.6 83 83 NNW 10 17 30.00 1016 10 16 0.00 0.00
4:53 am 04:53 Cloudy 38 3.3 32 0 79 79 NNW 10 17 29.96 1015 10 16 0.00 0.00
5:05 am 05:05 Cloudy 38 3.3 33 0.6 83 83 NNW 12 19 30.00 1016 10 16 0.00 0.00
5:53 am 05:53 Cloudy 37 2.8 33 0.6 86 86 NNW 7 11 29.98 1015 10 16 0.00 0.00
6:53 am 06:53 Cloudy 37 2.8 32 0 82 82 NNW 7 11 30.00 1016 10 16 0.00 0.00
7:53 am 07:53 Cloudy 38 3.3 33 0.6 83 83 NNW 7 11 30.02 1017 10 16 0.00 0.00
8:10 am 08:10 Cloudy 38 3.3 32 0 79 79 NNW 8 13 30.03 1017 10 16 0.00 0.00
8:53 am 08:53 Cloudy 40 4.4 32 0 73 73 NNW 7 11 30.02 1017 10 16 0.00 0.00
9:53 am 09:53 Mostly Cloudy 43 6.1 32 0 65 65 WNW 6 9 30.01 1016 10 16 0.00 0.00
10:32 am 10:32 Cloudy 43 6.1 30 -1.1 60 60 Calm 29.94 1014 10 16 0.00 0.00
10:53 am 10:53 Cloudy 44 6.7 32 0 63 63 VRB 5 7 30.00 1016 10 16 0.00 0.00
11:53 am 11:53 Cloudy 47 8.3 31 -0.6 54 54 NW 6 9 29.99 1016 10 16 0.00 0.00
12:53 pm 12:53 Cloudy 48 8.9 30 -1.1 50 50 undefined N/A 29.97 1015 10 16 0.00 0.00
12:58 pm 12:58 Cloudy 49 9.4 30 -1.1 48 48 N 7 11 29.91 1013 10 16 0.00 0.00
1:53 pm 13:53 Cloudy 50 10 30 -1.1 46 46 N 7 11 29.95 1014 10 16 0.00 0.00
2:53 pm 14:53 Cloudy 51 10.6 30 -1.1 44 44 VRB 5 7 29.94 1014 10 16 0.00 0.00
3:53 pm 15:53 Cloudy 52 11.1 32 0 47 47 S 6 9 29.93 1013 10 16 0.00 0.00
4:53 pm 16:53 Cloudy 53 11.7 31 -0.6 43 43 Calm 29.91 1013 10 16 0.00 0.00
5:53 pm 17:53 Partly Cloudy 54 12.2 30 -1.1 40 40 Calm 29.88 1012 10 16 0.00 0.00
6:53 pm 18:53 Cloudy 51 10.6 31 -0.6 46 46 WSW 3 6 29.89 1012 10 16 0.00 0.00
7:53 pm 19:53 Sunny 47 8.3 34 1.1 61 61 SSW 7 11 29.90 1013 10 16 0.00 0.00
8:53 pm 20:53 Clear 41 5 32 0 70 70 SSW 9 15 29.91 1013 10 16 0.00 0.00
9:53 pm 21:53 Clear 38 3.3 31 -0.6 76 76 SSW 9 15 29.91 1013 10 16 0.00 0.00
10:53 pm 22:53 Clear 39 3.9 32 0 76 76 S 10 17 29.89 1012 10 16 0.00 0.00
11:53 pm 23:53 Clear 37 2.8 32 0 82 82 SSW 9 15 29.88 1012 10 16 0.00 0.00

Powered by AerisWeather